AirNav   SIMCOM
 
 1414 users online  

1GE5 Flying D Airport
Concord, Georgia, USA


FAA INFORMATION EFFECTIVE 14 SEPTEMBER 2017

Location

FAA Identifier: 1GE5
Lat/Long: 33-06-04.4500N / 084-23-36.7200W
33-06.074167N / 084-23.612000W
33.1012361 / -84.3935333
(estimated)
Elevation: 838 ft. / 255 m (estimated)
Variation: 03W (1995)
From city: 3 miles NE of CONCORD, GA
Time zone: UTC -4 (UTC -5 during Standard Time)
Zip code: 30206

Airport Operations

Airport use: Private use. Permission required prior to landing
Activation date: 07/1999
Control tower: no
ARTCC: ATLANTA CENTER
FSS: MACON FLIGHT SERVICE STATION
Attendance: UNATNDD
Wind indicator: yes
Segmented circle: no

Airport Communications

WX AWOS-3 at 6A2 (10 nm NE): 119.750 (770-227-3934)
WX AWOS-3 at OPN (11 nm SE): 133.975 (706-646-4123)
WX AWOS-3 at HMP (18 nm N): 124.825 (770-707-1719)
WX ASOS at FFC (18 nm NW): 118.525 (770-487-1610)

Nearby radio navigation aids

VOR radial/distance  VOR name  Freq  Var
ATLr181/31.7ATLANTA VORTAC116.9005W

 
NDB name  Hdg/Dist  Freq  Var  ID
PECAT164/12.931605WFFC ..-. ..-. -.-.
COWETA COUNTY123/18.623403WEQQ . --.- --.-
PINE MOUNTAIN060/28.727203WPIM .--. .. --

Airport Services

Runway Information

Runway 18/36

Dimensions: 1000 x 40 ft. / 305 x 12 m
Surface: turf, in good condition
RUNWAY 18  RUNWAY 36
Traffic pattern: leftright

Airport Ownership and Management from official FAA records

Ownership: Privately-owned
Owner: DAVID NEYHART
P.O. BOX 996
ZEBULON, GA 30295
Phone (770) 567-9928
Manager: DAVID NEYHART
P.O. BOX 996
ZEBULON, GA 30295
Phone (770) 567-9928

Airport Operational Statistics

Aircraft based on the field: 2
Single engine airplanes: 1
Ultralights: 1
    

Instrument Procedures

There are no published instrument procedures at 1GE5.

Some nearby airports with instrument procedures:

6A2 - Griffin-Spalding County Airport (10 nm NE)
KOPN - Thomaston-Upson County Airport (11 nm SE)
KHMP - Henry County Airport (18 nm N)
KFFC - Atlanta Regional Airport-Falcon Field (18 nm NW)
KCCO - Newnan Coweta County Airport (23 nm NW)
 
Loc | Ops | Rwys | IFR | FBO | Links
Com | Nav | Svcs | Stats | Notes


 
Aerial photo
No photo
 
Airport distance calculator
Flying to Flying D Airport? Find the distance to fly.

From to 1GE5

Sunrise and sunset
Times for 25-Sep-2017
 Local
(UTC-4)
 Zulu
(UTC)
Morning civil twilight07:0411:04
Sunrise07:2911:29
Sunset19:3023:30
Evening civil twilight19:5523:55

Current date and time
Zulu (UTC)  25-Sep-2017 21:27:33
Local (UTC-4)  25-Sep-2017 17:27:33
 
METAR
K6A2 
10nm NE 
252115Z AUTO 05003KT 10SM CLR 30/16 A2995 RMK AO2
KOPN 
11nm SE 
252115Z AUTO 08006KT 10SM CLR 30/11 A2994 RMK AO2
KFFC 
17nm NW 
252053Z AUTO 06005KT 10SM CLR 31/14 A2994 RMK AO2 SLP133 T03060144 56023
KHMP 
18nm N 
252115Z AUTO 07004KT 10SM CLR 31/16 A2994 RMK AO2 T03060155
TAF
KATL 
32nm N 
251947Z 2520/2624 08010KT P6SM FEW060 FEW250 FM260000 05005KT P6SM FEW250 FM261600 02008KT P6SM FEW050 FEW250
NOTAMs
Click for the latest NOTAMs
NOTAMs are issued by the DoD/FAA and will open in a separate window not controlled by AirNav.

 

 
 

Would you like to see your business listed on this page?

 If your business provides an interesting product or service to pilots, flight crews, aircraft, or users of the Flying D Airport, you should consider listing it here.  To start the listing process, click on the button below
 
Add a business
 

Other Pages about Flying D Airport

Update a link
 
Copyright © AirNav, LLC. All rights reserved. Privacy Policy  Contact